This demonstration page uses our WeatherBlox Daily Observations layout. Learn more.

Left ArrowRight Arrow

34.74481, -87.66753

Hourly Observations for September 19, 2019

Temp ( °F °C ) Dew Point ( °F °C ) Humidity (%) Winds ( mph kmh ) Pressure ( in mb ) Visibility ( mi km ) Precip ( " mm )
12:53 am 00:53 Clear 76 24.4 65 18.3 69 69 ESE 6 9 29.99 1016 10 16 0.00 0.00
1:53 am 01:53 Clear 74 23.3 67 19.4 79 79 E 6 9 30.00 1016 10 16 0.00 0.00
2:53 am 02:53 Clear 74 23.3 68 20 82 82 ESE 5 7 30.00 1016 10 16 0.00 0.00
3:53 am 03:53 Clear 73 22.8 68 20 84 84 E 6 9 30.01 1016 10 16 0.00 0.00
4:53 am 04:53 Clear 73 22.8 68 20 84 84 E 7 11 30.01 1016 10 16 0.00 0.00
5:53 am 05:53 Clear 72 22.2 67 19.4 84 84 E 5 7 30.04 1017 10 16 0.00 0.00
6:53 am 06:53 Sunny 71 21.7 65 18.3 81 81 ESE 6 9 30.05 1018 10 16 0.00 0.00
7:53 am 07:53 Sunny 74 23.3 64 17.8 71 71 ESE 7 11 30.06 1018 10 16 0.00 0.00
8:53 am 08:53 Sunny 78 25.6 65 18.3 64 64 SE 13 20 30.08 1019 10 16 0.00 0.00
9:34 am 09:34 Mostly Cloudy 79 26.1 65 18.3 62 62 SSE 13 20 30.10 1019 10 16 0.00 0.00
9:53 am 09:53 Cloudy 80 26.7 66 18.9 62 62 SE 12 19 30.10 1019 10 16 0.00 0.00
10:53 am 10:53 Mostly Cloudy 84 28.9 66 18.9 55 55 S 9 15 30.11 1020 10 16 0.00 0.00
11:53 am 11:53 Cloudy 86 30 66 18.9 51 51 SSE 9 15 30.10 1019 10 16 0.00 0.00
12:53 pm 12:53 Cloudy 85 29.4 66 18.9 53 53 S 8 13 30.09 1019 10 16 0.00 0.00
1:53 pm 13:53 Cloudy 85 29.4 67 19.4 55 55 VRB 6 9 30.09 1019 10 16 0.00 0.00
2:53 pm 14:53 Partly Cloudy 89 31.7 67 19.4 48 48 undefined N/A 30.06 1018 10 16 0.00 0.00
3:53 pm 15:53 Partly Cloudy 89 31.7 67 19.4 48 48 Calm 30.04 1017 10 16 0.00 0.00
4:53 pm 16:53 Mostly Sunny 90 32.2 67 19.4 47 47 SSE 7 11 30.03 1017 10 16 0.00 0.00
5:53 pm 17:53 Sunny 88 31.1 66 18.9 48 48 SSE 8 13 30.02 1017 10 16 0.00 0.00
6:53 pm 18:53 Clear 84 28.9 67 19.4 57 57 SSE 3 6 30.03 1017 10 16 0.00 0.00
7:53 pm 19:53 Mostly Cloudy 80 26.7 67 19.4 64 64 Calm 30.05 1018 10 16 0.00 0.00
8:53 pm 20:53 Mostly Cloudy 80 26.7 66 18.9 62 62 ESE 6 9 30.08 1019 10 16 0.00 0.00
9:53 pm 21:53 Mostly Clear 78 25.6 65 18.3 64 64 SE 6 9 30.09 1019 10 16 0.00 0.00
10:53 pm 22:53 Clear 77 25 64 17.8 64 64 SSE 6 9 30.09 1019 10 16 0.00 0.00
11:53 pm 23:53 Clear 73 22.8 64 17.8 74 74 SE 3 6 30.10 1019 10 16 0.00 0.00

Powered by AerisWeather